Weather History for KWWD - May, 2013

Change the Weather History Date:

Sunday, May 5, 2013

  Actual Average Record
Temperature  
Mean Temperature 50 °F -  
Max Temperature 55 °F 65 °F 82 °F (2000)
Min Temperature 44 °F 49 °F 35 °F (2003)
Degree Days  
Heating Degree Days 16    
Moisture  
Dew Point 40 °F    
Average Humidity 69    
Maximum Humidity 87    
Minimum Humidity 58    
Precipitation  
Precipitation 0.00 in - - ()
Sea Level Pressure  
Sea Level Pressure 30.23 in    
Wind  
Wind Speed 13 mph (ENE)    
Max Wind Speed 18 mph    
Max Gust Speed 26 mph    
Visibility 10 miles    
Events      
Averages and records for this station are not official NWS values.
T = Trace of Precipitation, MM = Missing Value Source: NWS Daily Summary

Daily Weather History Graph

Daily Weather History Graph

Search for Another Location

Airport or City:

Trip Planner

Search our weather history database for the weather conditions in past years. The results will help you decide how hot, cold, wet, or windy it might be!

Date:

Astronomy

May. 05, 2013 Rise Set
Actual Time 5:56 AM EDT 7:56 PM EDT
Civil Twilight 5:27 AM EDT 8:25 PM EDT
Nautical Twilight 4:51 AM EDT 9:01 PM EDT
Astronomical Twilight 4:13 AM EDT 9:40 PM EDT
Moon 3:23 AM EDT (5/5) 3:55 PM EDT (5/5)
Length of Visible Light 14h 58m
Length of Day
13h 59m
Waning Crescent, 18% of the Moon is Illuminated
May 5
Waning Crescent
May 9
New
May 18
First Quarter
May 25
Full
May 31
Last Quarter

Hourly Weather History & Observations

Time (EDT) Temp. Windchill Dew Point Humidity Pressure Visibility Wind Dir Wind Speed Gust Speed Precip Events Conditions
12:15 AM 46.4 °F 40.4 °F 37.4 °F 71% 30.26 in 10.0 mi ENE 13.8 mph - N/A   Mostly Cloudy
12:35 AM 46.4 °F 41.5 °F 37.4 °F 71% 30.26 in 10.0 mi ENE 10.4 mph - N/A   Mostly Cloudy
12:55 AM 46.4 °F 41.5 °F 39.2 °F 76% 30.26 in 10.0 mi ENE 10.4 mph 17.3 mph N/A   Overcast
1:15 AM 46.4 °F 41.1 °F 39.2 °F 76% 30.25 in 10.0 mi ENE 11.5 mph 18.4 mph N/A   Mostly Cloudy
1:35 AM 46.4 °F 41.1 °F 37.4 °F 71% 30.24 in 10.0 mi ENE 11.5 mph - N/A   Mostly Cloudy
1:55 AM 46.4 °F 41.5 °F 37.4 °F 71% 30.23 in 10.0 mi NE 10.4 mph - N/A   Scattered Clouds
2:15 AM 46.4 °F 41.5 °F 37.4 °F 71% 30.22 in 10.0 mi NE 10.4 mph - N/A   Clear
2:35 AM 46.4 °F 40.7 °F 37.4 °F 71% 30.22 in 10.0 mi ENE 12.7 mph 19.6 mph N/A   Clear
2:55 AM 46.4 °F 41.5 °F 37.4 °F 71% 30.21 in 10.0 mi ENE 10.4 mph 16.1 mph N/A   Clear
3:15 AM 44.6 °F 38.8 °F 37.4 °F 76% 30.21 in 10.0 mi ENE 11.5 mph 17.3 mph N/A   Clear
3:35 AM 44.6 °F 39.7 °F 37.4 °F 76% 30.22 in 10.0 mi ENE 9.2 mph - N/A   Clear
3:55 AM 46.4 °F 40.7 °F 37.4 °F 71% 30.22 in 10.0 mi NE 12.7 mph 18.4 mph N/A   Scattered Clouds
4:15 AM 46.4 °F 40.7 °F 37.4 °F 71% 30.22 in 10.0 mi NE 12.7 mph 19.6 mph N/A   Mostly Cloudy
4:35 AM 46.4 °F 40.4 °F 37.4 °F 71% 30.22 in 10.0 mi ENE 13.8 mph 18.4 mph N/A   Mostly Cloudy
4:55 AM 46.4 °F 41.9 °F 37.4 °F 71% 30.22 in 10.0 mi NE 9.2 mph - N/A   Mostly Cloudy
5:15 AM 46.4 °F 41.5 °F 37.4 °F 71% 30.22 in 10.0 mi ENE 10.4 mph 18.4 mph N/A   Overcast
5:35 AM 46.4 °F 40.1 °F 37.4 °F 71% 30.22 in 10.0 mi ENE 15.0 mph 18.4 mph N/A   Overcast
5:55 AM 46.4 °F 40.4 °F 35.6 °F 66% 30.22 in 10.0 mi ENE 13.8 mph 19.6 mph N/A   Overcast
6:15 AM 46.4 °F 39.8 °F 37.4 °F 71% 30.23 in 10.0 mi ENE 16.1 mph 19.6 mph N/A   Overcast
6:35 AM 46.4 °F 40.1 °F 35.6 °F 66% 30.23 in 10.0 mi ENE 15.0 mph 20.7 mph N/A   Overcast
6:55 AM 46.4 °F 41.1 °F 37.4 °F 71% 30.24 in 10.0 mi ENE 11.5 mph - N/A   Overcast
7:15 AM 46.4 °F 40.7 °F 37.4 °F 71% 30.24 in 10.0 mi ENE 12.7 mph 18.4 mph N/A   Overcast
7:35 AM 46.4 °F 40.7 °F 37.4 °F 71% 30.24 in 10.0 mi ENE 12.7 mph 21.9 mph N/A   Overcast
7:55 AM 46.4 °F 41.5 °F 37.4 °F 71% 30.24 in 10.0 mi ENE 10.4 mph 21.9 mph N/A   Overcast
8:15 AM 46.4 °F 40.4 °F 37.4 °F 71% 30.25 in 10.0 mi ENE 13.8 mph 20.7 mph N/A   Overcast
8:35 AM 48.2 °F - 37.4 °F 66% 30.25 in 10.0 mi ENE 11.5 mph 21.9 mph N/A   Overcast
8:55 AM 48.2 °F - 37.4 °F 66% 30.26 in 10.0 mi NE 16.1 mph 23.0 mph N/A   Overcast
9:15 AM 48.2 °F - 39.2 °F 71% 30.26 in 10.0 mi ENE 13.8 mph 20.7 mph N/A   Overcast
9:35 AM 48.2 °F - 37.4 °F 66% 30.26 in 10.0 mi NE 13.8 mph 21.9 mph N/A   Overcast
9:55 AM 50.0 °F - 39.2 °F 66% 30.26 in 10.0 mi NE 16.1 mph 23.0 mph N/A   Overcast
10:15 AM 51.8 °F - 39.2 °F 62% 30.25 in 10.0 mi NE 16.1 mph 24.2 mph N/A   Overcast
10:35 AM 51.8 °F - 37.4 °F 58% 30.25 in 10.0 mi NE 16.1 mph 26.5 mph N/A   Overcast
10:55 AM 53.6 °F - 39.2 °F 58% 30.26 in 10.0 mi NE 15.0 mph 24.2 mph N/A   Overcast
11:15 AM 53.6 °F - 39.2 °F 58% 30.25 in 10.0 mi NE 13.8 mph 21.9 mph N/A   Overcast
11:35 AM 53.6 °F - 41.0 °F 62% 30.25 in 10.0 mi NE 16.1 mph 24.2 mph N/A   Overcast
11:55 AM 55.4 °F - 41.0 °F 58% 30.25 in 10.0 mi NE 12.7 mph 24.2 mph N/A   Overcast
12:15 PM 55.4 °F - 42.8 °F 63% 30.24 in 10.0 mi ENE 16.1 mph 23.0 mph N/A   Mostly Cloudy
12:35 PM 55.4 °F - 42.8 °F 63% 30.24 in 10.0 mi ENE 15.0 mph 24.2 mph N/A   Partly Cloudy
12:55 PM 55.4 °F - 41.0 °F 58% 30.24 in 10.0 mi ENE 17.3 mph 23.0 mph N/A   Clear
1:15 PM 55.4 °F - 42.8 °F 63% 30.24 in 10.0 mi ENE 15.0 mph 21.9 mph N/A   Clear
1:35 PM 55.4 °F - 41.0 °F 58% 30.24 in 10.0 mi ENE 17.3 mph 23.0 mph N/A   Clear
2:15 PM 55.4 °F - 42.8 °F 63% 30.24 in 10.0 mi ENE 17.3 mph 24.2 mph N/A   Partly Cloudy
2:35 PM 55.4 °F - 42.8 °F 63% 30.25 in 10.0 mi ENE 16.1 mph 20.7 mph N/A   Partly Cloudy
2:55 PM 55.4 °F - 41.0 °F 58% 30.24 in 10.0 mi ENE 17.3 mph 24.2 mph N/A   Clear
3:15 PM 55.4 °F - 42.8 °F 63% 30.24 in 10.0 mi ENE 16.1 mph 23.0 mph N/A   Clear
3:35 PM 55.4 °F - 42.8 °F 63% 30.24 in 10.0 mi NE 18.4 mph 26.5 mph N/A   Clear
3:55 PM 55.4 °F - 42.8 °F 63% 30.24 in 10.0 mi ENE 16.1 mph 20.7 mph N/A   Clear
4:15 PM 55.4 °F - 42.8 °F 63% 30.23 in 10.0 mi NE 13.8 mph 23.0 mph N/A   Clear
4:35 PM 53.6 °F - 41.0 °F 62% 30.23 in 10.0 mi ENE 17.3 mph 21.9 mph N/A   Clear
4:55 PM 53.6 °F - 41.0 °F 62% 30.22 in 10.0 mi NE 17.3 mph 23.0 mph N/A   Clear
5:15 PM 53.6 °F - 41.0 °F 62% 30.22 in 10.0 mi NE 16.1 mph 21.9 mph N/A   Clear
5:35 PM 53.6 °F - 39.2 °F 58% 30.22 in 10.0 mi ENE 13.8 mph 21.9 mph N/A   Clear
5:55 PM 51.8 °F - 39.2 °F 62% 30.22 in 10.0 mi ENE 15.0 mph 21.9 mph N/A   Scattered Clouds
6:15 PM 51.8 °F - 39.2 °F 62% 30.22 in 10.0 mi ENE 13.8 mph 20.7 mph N/A   Partly Cloudy
6:35 PM 51.8 °F - 41.0 °F 67% 30.22 in 10.0 mi NE 11.5 mph 20.7 mph N/A   Clear
6:55 PM 51.8 °F - 41.0 °F 67% 30.22 in 10.0 mi ENE 13.8 mph - N/A   Clear
7:15 PM 50.0 °F - 41.0 °F 71% 30.22 in 10.0 mi NE 11.5 mph - N/A   Clear
7:35 PM 50.0 °F - 41.0 °F 71% 30.22 in 10.0 mi ENE 11.5 mph - N/A   Clear
8:15 PM 48.2 °F - 41.0 °F 76% 30.23 in 10.0 mi ENE 10.4 mph - N/A   Clear
8:35 PM 48.2 °F - 41.0 °F 76% 30.23 in 10.0 mi ENE 9.2 mph - N/A   Clear
8:55 PM 48.2 °F - 41.0 °F 76% 30.23 in 10.0 mi ENE 9.2 mph - N/A   Clear
9:15 PM 46.4 °F 41.9 °F 41.0 °F 81% 30.23 in 10.0 mi ENE 9.2 mph - N/A   Clear
9:35 PM 46.4 °F 41.9 °F 42.8 °F 87% 30.23 in 10.0 mi ENE 9.2 mph - N/A   Clear
9:55 PM 46.4 °F 42.4 °F 42.8 °F 87% 30.23 in 10.0 mi ENE 8.1 mph - N/A   Clear
10:35 PM 48.2 °F - 42.8 °F 82% 30.22 in 10.0 mi ENE 9.2 mph - N/A   Clear
10:55 PM 48.2 °F - 42.8 °F 82% 30.21 in 10.0 mi ENE 9.2 mph - N/A   Clear
11:15 PM 48.2 °F - 42.8 °F 82% 30.21 in 10.0 mi ENE 8.1 mph - N/A   Clear
11:35 PM 48.2 °F - 42.8 °F 82% 30.21 in 10.0 mi ENE 8.1 mph - N/A   Clear
11:55 PM 46.4 °F 43.5 °F 42.8 °F 87% 30.21 in 10.0 mi ENE 5.8 mph - N/A   Clear